Showing 1 to 100 of 354 results
Race Number First Name Surname Gender Gender Position Category Category Position Club Gun Time Overall Position Chip Time Chip Position
385 Chris Griffiths Male 4 MV35 1 00:38:25 4 00:38:24 4
186 Mike Roberts Male 9 MSENIOR 4 00:40:17 9 00:40:17 9
108 Andy Casey Male 10 MV40 5 00:40:28 10 00:40:24 10
258 Gavin Rogers Male 11 MSENIOR 5 00:40:38 11 00:40:37 11
205 Mark Ashley Male 12 MV35 2 00:41:26 13 00:41:18 13
193 Christopher Stephens Male 14 MV45 1 00:42:01 15 00:41:40 15
105 Charlie Croasdale Male 19 MSENIOR 6 00:43:36 20 00:43:33 20
268 Alistair Holl Male 20 MV40 8 00:43:43 21 00:43:40 21
140 Andrew McKenzie Male 22 MSENIOR 7 00:43:54 23 00:43:49 22
10 Martin Wynn Male 23 MV50 1 00:43:56 24 00:43:54 25
46 Daniel Jones Male 25 MSENIOR 8 00:44:13 26 00:43:50 23
139 Chris Edwards Male 26 MSENIOR 9 00:44:14 27 00:43:55 26
234 Ryan Davidson Male 27 MSENIOR 10 00:44:30 28 00:44:26 28
361 Jon Bowyer Male 30 MV45 4 00:44:41 31 00:44:33 31
269 Debbie Holl Female 2 FV40 1 00:44:44 32 00:44:41 33
362 Paul Ballimger Male 31 MV55 4 00:44:51 33 00:44:40 32
248 Paul Morris Male 32 MV40 9 00:44:58 34 00:44:54 36
360 Stuart Davies Male 33 MV35 3 00:45:04 35 00:44:50 35
294 Gareth Vale Male 34 MJUNIOR 2 00:45:05 36 00:44:49 34
228 Jamie Willams Male 36 MV40 10 00:45:19 38 00:45:12 38
340 Gareth Denman Male 37 MV35 4 00:45:23 39 00:45:20 39
66 Lee Wasnidge Male 38 MV45 6 00:45:37 40 00:45:37 42
106 Huw Roberts Male 39 MV40 11 00:45:40 41 00:45:34 40
9 Luke Crofts Male 40 MV35 5 00:45:42 42 00:45:35 41
178 David Graham Male 41 MV35 6 00:45:46 43 00:45:40 43
260 Sarah Ryder Female 3 FV40 2 00:45:56 44 00:45:47 44
214 Stephen Salisbury Male 43 MSENIOR 12 00:46:20 47 00:46:16 47
384 Lon Hooson Male 44 MV40 12 00:46:24 48 00:46:22 48
364 David Taylor Male 46 MV40 13 00:46:46 50 00:46:41 50
86 David Roe Male 47 MSENIOR 13 00:46:51 51 00:46:42 51
349 Douglas Watts Male 48 MV50 2 00:47:10 52 00:47:08 54
209 Wayne Birbeck Male 49 MV50 3 00:47:14 53 00:47:09 55
343 Trevor Tommy Male 50 MV50 4 00:47:14 54 00:47:00 53
245 Stephen Seward Male 52 MV40 14 00:47:16 56 00:47:00 52
387 David Griffiths Male 53 MV45 8 00:47:20 57 00:47:12 56
58 Mark Dunning Male 55 MSENIOR 14 00:47:28 59 00:47:22 60
296 Neil Beardmore Male 56 MV35 7 00:47:31 60 00:47:28 61
278 Neil Balderstone Male 57 MV35 8 00:47:41 61 00:47:16 59
339 Robert White Male 58 MV35 9 00:47:59 62 00:47:41 62
372 Ricky West Male 59 MV40 16 00:48:01 63 00:48:00 64
52 Chris Speed Male 60 MSENIOR 15 00:48:07 64 00:47:58 63
215 Ian Hogg Male 61 MV45 9 00:48:09 65 00:48:04 66
48 Paul Conlon Male 62 MV45 10 00:48:15 66 00:48:04 65
143 Kevin Dixon Male 63 MV55 7 00:48:32 67 00:48:28 68
255 Paul Hodge Male 64 MV40 17 00:48:38 68 00:48:30 69
161 Simon Wilde Male 65 MV40 18 00:48:47 69 00:48:42 70
288 Matt Davison Male 66 MSENIOR 16 00:48:48 70 00:48:21 67
147 Chris Gibbons Male 67 MV35 10 00:48:48 71 00:48:47 72
280 Michael Dunning Male 71 MSENIOR 17 00:49:08 75 00:49:02 74
312 Geoff Richards Male 72 MV60 1 00:49:19 76 00:49:13 77
231 Michael Mort Male 74 MV35 11 00:49:32 78 00:49:22 79
389 Gwyn Jones Male 75 MV40 20 00:49:37 79 00:49:09 76
203 Joe Morrissey Male 76 MV35 12 00:49:43 80 00:49:37 82
142 Mark Broomfield Male 77 MV45 12 00:49:43 81 00:49:24 80
354 Mark Blakemore Male 78 MV50 6 00:49:50 82 00:49:48 85
309 Nathan Winstanley Male 79 MV35 13 00:49:54 83 00:49:42 83
116 Peter Doran Male 80 MV45 13 00:49:54 84 00:49:37 81
183 Andy Affleck Male 81 MV50 7 00:49:57 85 00:49:46 84
118 Matt Johnson Male 82 MV40 21 00:50:28 89 00:50:20 89
156 Matthew Bellis Male 83 MSENIOR 18 00:50:36 90 00:50:19 88
232 Gary Field Male 84 MSENIOR 19 00:50:38 91 00:50:34 93
352 Richard Whale Male 85 MV40 22 00:50:39 92 00:50:27 91
351 David Smith Male 86 MV40 23 00:50:39 93 00:50:32 92
53 Adam Williams Male 87 MV40 24 00:50:45 94 00:50:39 94
376 Lesley Phoenix Female 8 FSENIOR 1 00:50:50 95 00:50:48 95
213 Shaun Taylor Male 88 MSENIOR 20 00:51:00 96 00:51:00 100
359 Nick Laing Male 89 MV45 14 00:51:02 97 00:50:57 97
358 Sion Williams Male 90 MV45 15 00:51:03 98 00:50:57 98
73 Gareth Burroughes Male 92 MV35 14 00:51:22 100 00:51:00 101
210 Adam Davies Male 93 MV40 25 00:51:22 101 00:51:00 99
334 Nick Turner Male 95 MV35 15 00:51:32 103 00:51:22 103
61 Michael Cooper Male 96 MV35 16 00:51:35 104 00:51:07 102
204 Suzie Lochead Female 9 FSENIOR 2 00:51:38 106 00:51:32 106
57 Chris Byrom Male 98 MV40 26 00:51:44 107 00:51:31 105
177 Stephen Aldridge Male 99 MV40 27 00:51:52 108 00:51:36 108
59 Daniel Roberts Male 100 MSENIOR 21 00:52:05 109 00:51:48 109
283 Adam Edwards Male 101 MSENIOR 22 00:52:16 110 00:52:01 111
366 Fred Booth Male 102 MV40 28 00:52:16 111 00:52:03 112
95 Richard Turner Male 103 MV35 17 00:52:22 112 00:51:56 110
195 Mark Richards Male 104 MV40 29 00:52:24 113 00:52:05 113
74 Colin Jones Male 105 MV55 9 00:52:25 114 00:52:14 116
308 Simon Allen Male 106 MV50 8 00:52:30 115 00:52:06 114
197 Andy Williams Male 107 MV45 17 00:52:34 116 00:52:09 115
49 Paul Jones Male 108 MV40 30 00:52:37 117 00:52:34 117
391 Andy Roberts Male 109 MV35 18 00:52:53 118 00:52:43 118
110 David Jones Male 110 MV40 31 00:52:58 119 00:52:51 120
310 Gwennan Henstock Female 10 FV35 3 00:53:00 121 00:52:48 119
40 Michelle Owens Female 11 FV40 3 00:53:08 122 00:52:52 121
346 Charlotte Nash Female 12 FV35 4 00:53:11 123 00:52:53 122
222 Curtis Jones Male 112 MSENIOR 23 00:53:12 124 00:53:03 124
382 Ian Dunning Male 113 MSENIOR 24 00:53:19 125 00:53:13 127
355 Ross Blakemore Male 114 MSENIOR 25 00:53:19 126 00:53:18 131
322 Andrew Evans Male 115 MV35 20 00:53:19 127 00:53:15 128
221 Felicity Pickering Female 13 FSENIOR 3 00:53:19 128 00:53:10 126
223 Amy Pickering Female 14 FSENIOR 4 00:53:29 130 00:53:20 132
80 Roger Brown Male 117 MV40 32 00:53:30 131 00:53:26 134
79 Osian Jones Male 119 MSENIOR 27 00:53:38 133 00:53:18 130
218 Julia Bellingham Female 15 FSENIOR 5 00:53:40 134 00:53:22 133
135 Gart Rendle Male 120 MV55 10 00:53:53 135 00:53:33 135
14 Mark Rothero Male 121 MV40 33 00:53:57 136 00:53:37 136